Regional Weather Roundup
Issued by NWS State College, PA

Home | Current Version | Previous Version | Text Only | Print | Product List | Glossary On
Versions: 1 2 3 4 5 6 7 8 9 10 11 12 13 14 15 16 17 18 19 20 21 22 23 24 25 26 27 28 29 30 31 32 33 34 35 36 37 38 39 40 41 42 43 44 45 46 47 48 49 50
000
ASUS41 KCTP 230410
RWRCTP

REGIONAL WEATHER ROUNDUP
NATIONAL WEATHER SERVICE STATE COLLEGE PA
1200 AM EDT TUE SEP 23 2014

Note: "fair" indicates few or no clouds below 12,000 feet with no
significant weather and/or obstructions to visibility.

* = STATION THAT DOES NOT REPORT PRECIPITATION /E.G. RAIN...SNOW...ETC/
    THUNDER OR FOG.

PAZ002>004-007>009-013>016-020>023-029>032-230500-
WESTERN PENNSYLVANIA

CITY           SKY/WX    TMP DP  RH WIND       PRES   REMARKS
ERIE           CLEAR     47  41  80 S6        30.26S
MEADVILLE      PTCLDY    46  40  79 SW5       30.27S
FRANKLIN*      CLEAR     39  36  87 SW6       30.28S
NEW CASTLE     FOG       39  39 100 CALM      30.30R VSB 3/4
BEAVER COUNTY  NOT AVBL
BUTLER*        CLEAR     43  37  81 CALM      30.30S
PITTSBURGH INT CLEAR     46  41  82 CALM      30.28S
PITTSBURGH     CLEAR     48  40  73 CALM      30.28S
INDIANA*       CLEAR     43  41  93 CALM      30.31S
LATROBE        CLEAR     46  45  93 CALM      30.29S
WASHINGTON CO* CLEAR     39  36  87 CALM      30.30S
$$

PAZ004>006-010>012-017>019-024>028-033>037-041-042-045-046-049>053-230500-
CENTRAL PENNSYLVANIA

CITY           SKY/WX    TMP DP  RH WIND       PRES   REMARKS
BRADFORD       CLEAR     43  41  93 W6        30.23S
DUBOIS         CLEAR     43  40  89 W7        30.25R
CLEARFIELD     CLEAR     45  41  86 SW5       30.26R
JOHNSTOWN      MOCLDY    45  38  76 NW7       30.26S
ALTOONA        CLEAR     47  39  74 N3        30.27R
STATE COLLEGE  CLEAR     49  42  76 NW3       30.25R
WILLIAMSPORT   CLEAR     47  41  80 NW3       30.22R
SELINSGROVE    CLEAR     47  42  83 CALM      30.23F
FT INDIANTOWN  MOCLDY    55  40  57 NW2       30.23R
CAPITAL CITY   PTCLDY    57  40  52 W7        30.24R
HARRISBURG     MOCLDY    57  40  52 NW7       30.23R
YORK           CLOUDY    55  42  61 NW7       30.23R
$$

PAZ038>040-043-044-047-048-054-055-060>062-067>071-230500-
EASTERN PENNSYLVANIA

CITY           SKY/WX    TMP DP  RH WIND       PRES   REMARKS
SCRANTON       CLEAR     50  37  61 CALM      30.21R
MOUNT POCONO   CLEAR     45  35  68 NW14G23   30.17R
ALLENTOWN      CLEAR     51  38  60 NW7       30.21R
QUAKERTOWN*    CLEAR     48  41  76 NW3       30.22R
READING        CLEAR     53  40  61 N3        30.21S
LANCASTER      CLEAR     51  40  65 N7        30.22S
COATESVILLE    CLEAR     52  41  66 NW8       30.23R
POTTSTOWN      CLEAR     51  41  68 NW5       30.23R
BLUE BELL      CLEAR     48  45  87 CALM      30.21R
DOYLESTOWN     CLEAR     53  39  59 N7        30.20R
WILLOW GROVE   NOT AVBL
NORTH PHILA    PTCLDY    56  41  57 NW8       30.22R
PHILADELPHIA   PTCLDY    58  41  53 NW9       30.21R
$$



USA.gov is the U.S. government's official web portal to all federal, state and local government web resources and services.